• Join FlightAware (Why Join?)
  • Login
  • US Flag 
08:52PM EDT


 

Airport Tracker/Info


-or-


 

Live Flight TrackerFlight Track Log ✈ SWA2966 ✈ 28-Apr-2013 ✈ KOAK - KONT

Flight Track Log - Related Links

Times and Time Zones

All times are in EDT time to prevent confusion due to time zone crossing. See the SWA2966 flight status page for this flight to view local times or setup timezone preferences in your user account.

Time Position Orientation Groundspeed Altitude Reporting Facility
EDT Latitude Longitude Course Direction KTS MPH feet Rate Location/Type
03:25PM 37.7500 -122.2833 288° West 200 230 2,300  Level Northern Cal TRACON
03:26PM 37.7667 -122.3500 288° West 217 250 6,100 3,180 Climbing Northern Cal TRACON
03:26PM 37.7681 -122.3581 282° West 210 242 6,400 3,000 Climbing Oakland Center
03:27PM 37.7167 -122.4000 213° Southwest 271 312 9,100 3,420 Climbing Northern Cal TRACON
03:28PM 37.6333 -122.4167 189° South 321 369 12,400 3,300 Climbing Northern Cal TRACON
03:28PM 37.6006 -122.4136 176° South 322 371 13,400 3,120 Climbing Oakland Center
03:29PM 37.5333 -122.3272 134° Southeast 354 407 16,600 2,760 Climbing Oakland Center
03:30PM 37.4672 -122.2247 129° Southeast 376 433 19,100 2,580 Climbing Oakland Center
03:31PM 37.3978 -122.1164 129° Southeast 395 455 21,900 2,700 Climbing Oakland Center
03:32PM 37.3256 -122.0025 129° Southeast 414 476 24,700 2,400 Climbing Oakland Center
03:33PM 37.2506 -121.8864 129° Southeast 427 491 26,900 1,740 Climbing Oakland Center
03:34PM 37.1669 -121.7572 129° Southeast 434 499 28,300 1,800 Climbing Oakland Center
03:35PM 37.0811 -121.6256 129° Southeast 443 510 30,700 2,220 Climbing Oakland Center
03:36PM 37.0006 -121.5042 130° Southeast 452 520 32,900 2,160 Climbing Oakland Center
03:37PM 36.9228 -121.3831 129° Southeast 449 517 35,100 1,860 Climbing Oakland Center
03:38PM 36.8450 -121.2639 129° Southeast 442 509 36,800 900 Climbing Oakland Center
03:39PM 36.7606 -121.1361 129° Southeast 444 511 37,000 480 Climbing Oakland Center
03:41PM 36.6811 -121.0178 130° Southeast 445 512 37,900 780 Climbing Oakland Center
03:42PM 36.6028 -120.8981 129° Southeast 444 511 38,700 480 Climbing Oakland Center
03:43PM 36.5247 -120.7794 129° Southeast 444 511 39,000 120 Climbing Oakland Center
03:44PM 36.4472 -120.6614 129° Southeast 443 510 39,000  Level Oakland Center
03:45PM 36.3678 -120.5453 130° Southeast 440 506 39,000  Level Oakland Center
03:46PM 36.2867 -120.4281 131° Southeast 449 517 39,000  Level Oakland Center
03:47PM 36.2078 -120.3075 129° Southeast 452 520 39,000  Level Oakland Center
03:48PM 36.1111 -120.1689 131° Southeast 442 509 39,000  Level Oakland Center
03:49PM 36.0319 -120.0517 130° Southeast 443 510 39,000  Level Oakland Center
03:50PM 35.9539 -119.9392 131° Southeast 432 497 39,000  Level Oakland Center
03:51PM 35.8733 -119.8214 130° Southeast 443 510 39,000  Level Oakland Center
03:52PM 35.7925 -119.7050 131° Southeast 445 512 39,000  Level Oakland Center
03:53PM 35.7108 -119.5864 130° Southeast 450 518 39,000  Level Oakland Center
03:54PM 35.6281 -119.4681 131° Southeast 453 521 39,000  Level Oakland Center
03:55PM 35.5461 -119.3519 131° Southeast 450 518 39,000  Level Oakland Center
03:55PM 35.5153 -119.3061 130° Southeast 448 516 39,000  Level Los Angeles Center
03:56PM 35.4347 -119.1906 131° Southeast 446 513 39,000  Level Los Angeles Center
03:57PM 35.3533 -119.0761 131° Southeast 445 512 39,000  Level Los Angeles Center
03:58PM 35.2747 -118.9617 130° Southeast 442 509 39,000 -300 Level Los Angeles Center
03:59PM 35.1939 -118.8472 131° Southeast 443 510 38,400 -1,320 Descending Los Angeles Center
04:00PM 35.1122 -118.7361 132° Southeast 441 507 36,300 -2,820 Descending Los Angeles Center
04:01PM 35.0172 -118.6011 131° Southeast 438 504 32,600 -3,120 Descending Los Angeles Center
04:02PM 34.9350 -118.4883 132° Southeast 443 510 29,900 -2,460 Descending Los Angeles Center
04:03PM 34.8639 -118.3864 130° Southeast 436 502 27,600 -2,280 Descending Los Angeles Center
04:04PM 34.7878 -118.2822 132° Southeast 423 487 25,200 -1,920 Descending Los Angeles Center
04:05PM 34.6986 -118.1578 131° Southeast 412 474 23,700 -1,260 Descending Los Angeles Center
04:07PM 34.6244 -118.0544 131° Southeast 409 471 22,700 -1,200 Descending Los Angeles Center
04:08PM 34.5722 -117.9356 118° Southeast 402 463 21,300 -1,680 Descending Los Angeles Center
04:09PM 34.5203 -117.8233 119° Southeast 388 447 19,300 -2,100 Descending Los Angeles Center
04:10PM 34.4697 -117.7142 119° Southeast 376 433 17,000 -2,280 Descending Los Angeles Center
04:11PM 34.4117 -117.5878 119° Southeast 360 414 14,600 -1,680 Descending Los Angeles Center
04:12PM 34.3708 -117.4956 118° Southeast 342 394 13,600 -900 Descending Los Angeles Center
04:13PM 34.3292 -117.4092 120° Southeast 305 351 12,800 -2,040 Descending Los Angeles Center
04:14PM 34.2464 -117.3856 167° South 271 312 9,400 -2,940 Descending Los Angeles Center
04:15PM 34.1722 -117.4178 200° South 279 321 6,800 -2,100 Descending Los Angeles Center
04:16PM 34.1000 -117.4333 190° South 240 276 5,200 -1,260 Descending Southern California TRACON
04:17PM 34.0500 -117.4500 195° South 174 200 4,400 -1,320 Descending Southern California TRACON
04:18PM 34.0500 -117.5000 270° West 156 180 2,600 -1,440 Descending Southern California TRACON
04:19PM 34.0500 -117.5500 270° West 137 158 1,500 -1,140 Descending Southern California TRACON
04:22PM 34.0500 -117.6000 270° West  Level FlightAware Approximate